Regional Weather Roundup
Issued by NWS

Home | Current Version | Previous Version | Text Only | Print | Product List | Glossary Off
Versions: 1 2 3 4 5 6 7 8 9 10 11 12 13 14 15 16 17 18 19 20 21 22 23 24 25 26 27 28 29 30 31 32 33 34 35 36 37 38 39 40 41 42 43 44 45 46 47 48 49 50

000
ASUS45 KCYS 250410
RWRWY

WYOMING REGIONAL WEATHER ROUNDUP
NATIONAL WEATHER SERVICE CHEYENNE WY
900 PM MST WED DEC 24 2014

NOTE:  "FAIR" INDICATES FEW OR NO CLOUDS BELOW 12,000 FEET
WITH NO SIGNIFICANT WEATHER AND/OR OBSTRUCTIONS TO VISIBILITY.

WYZ001-250500-
YELLOWSTONE NATIONAL PARK

CITY           SKY/WX    TMP DP  RH WIND       PRES   REMARKS
LK YELLOWSTONE   N/A     21  19  92 CALM      29.43F
W YELLOWSTONE  NOT AVBL

$$
WYZ002>013-054>058-071-098>099-250500-
NORTHERN WYOMING

CITY           SKY/WX    TMP DP  RH WIND       PRES   REMARKS
JACKSON        CLOUDY    27  27 100 SW10      29.43  VSB 1   WCI  17
CODY           CLOUDY    28  21  74 N6        29.38S WCI  22
GREYBULL       CLOUDY    27  21  78 NW6       29.41F WCI  20
WORLAND        FAIR      20  16  84 CALM      29.40F
SHERIDAN       FLURRIES  34  26  72 W5        29.40R WCI  30
BUFFALO        FAIR      34  23  64 NW6       29.38S WCI  29
GILLETTE       CLOUDY    37  25  61 SW15      29.36F WCI  28
HULETT           N/A    N/A N/A N/A MISG        N/A
NEWCASTLE      FAIR      34  23  64 E5        29.44F WCI  30

$$
WYZ014>020-022>026-101>103-250500-
CENTRAL WYOMING

CITY           SKY/WX    TMP DP  RH WIND       PRES   REMARKS
BIG PINEY      CLOUDY    22  19  89 E3        29.49F
PINEDALE       LGT SNOW  27  25  93 SE6       29.50F WCI  20
DUBOIS         NOT AVBL
LANDER         FAIR      23  16  74 MISG      29.38F
RIVERTON       FAIR      20  14  77 NW3       29.41F
CASPER         FAIR      35  20  54 SW32G40   29.42F WCI  21
DOUGLAS        MOCLDY    43  22  43 W17G28    29.42F

$$
WYZ021-027>030-104>119-250500-
SOUTHERN WYOMING

CITY           SKY/WX    TMP DP  RH WIND       PRES   REMARKS
EVANSTON       MOCLDY    33  26  75 S24       29.47F WCI  20
KEMMERER       CLOUDY    32  27  80 SW15      29.49F WCI  22
FORT BRIDGER   FAIR      36  31  80 SW16G24   29.51F WCI  27
ROCK SPRINGS   CLOUDY    28  19  69 S9        29.52F WCI  19
DIXON          CLOUDY    32  17  53 SW3       29.66F
RAWLINS        FAIR      28  18  66 SW18G32   29.52F WCI  15
SARATOGA       FAIR      32  21  64 SW18G26   29.58F WCI  20
LARAMIE        FAIR      32  17  54 SW32G45   29.49F WCI  17
CHEYENNE       FAIR      39  18  42 W15       29.50F WCI  31
TORRINGTON     FAIR      40  23  50 SE9       29.46S WCI  34
PINE BLUFFS    FAIR      28  19  69 CALM      29.49F

$$



USA.gov is the U.S. government's official web portal to all federal, state and local government web resources and services.